User: anonymous   Login
Location: Langangen
(59.1000°N, 9.8000°E)
Time: 12:47:01
(UTC+01:00)
Language:

Iridium 60 - Orbit

View from above orbital plane
View from above orbital plane
View from above satellite
View from above satellite

Ground track
Ground track

The orbit data is extracted from the following two-line orbital elements,

1 25276U 98019E   17057.32026273  .00000213  00000-0  68966-4 0  9999
2 25276  86.3994 333.3499 0002156  83.1051 277.0390 14.34219151990174
Epoch (UTC): 26 February 2017 07:41:10
Eccentricity: 0.0002156
inclination: 86.3994°
perigee height: 776 km
apogee height: 779 km
right ascension of ascending node: 333.3499°
argument of perigee: 83.1051°
revolutions per day: 14.34219151
mean anomaly at epoch: 277.0390°
orbit number at epoch: 99017

The dashed part of the orbit path shows where the satellite is in the earth's shadow,  

DLR